Regional Weather Roundup
Issued by NWS

Home | Current Version | Previous Version | Graphics & Text | Print | Product List | Glossary On
Versions: 1 2 3 4 5 6 7 8 9 10 11 12 13 14 15 16 17 18 19 20 21 22 23 24 25 26 27 28 29 30 31 32 33 34 35 36 37 38 39 40 41 42 43 44 45 46 47 48 49 50
000
ASUS43 KBIS 281210
RWRND

NORTH DAKOTA REGIONAL WEATHER ROUNDUP
NATIONAL WEATHER SERVICE BISMARCK ND
600 AM CST SUN DEC 28 2014

NOTE: "FAIR" INDICATES FEW OR NO CLOUDS BELOW 12,000 FEET WITH NO
SIGNIFICANT WEATHER AND/OR OBSTRUCTIONS TO VISIBILITY.


NDZ001>003-009>011-017-281300-
NORTHWEST NORTH DAKOTA

CITY           SKY/WX    TMP DP  RH WIND       PRES   REMARKS
WILLISTON      CLOUDY    13   8  81 NE9       30.04S WCI   1
6HR MIN TEMP:  13; 6HR MAX TEMP:  17;

MINOT          CLOUDY    -4 -10  75 N9        30.12R WCI -20
MINOT AFB      CLOUDY    -6 -11  81 N7        30.14R WCI -21
$$

NDZ018>021-031>035-040>046-281300-
SOUTHWEST NORTH DAKOTA

CITY           SKY/WX    TMP DP  RH WIND       PRES   REMARKS
BISMARCK       LGT SNOW  14  11  87 E10       30.08R FOG     WCI   1
6HR MIN TEMP:  14; 6HR MAX TEMP:  17; 6HR PCP:  0.01;

DICKINSON      CLOUDY    19  14  81 E10       29.93F WCI   7
GARRISON         N/A      9   5  84 E6        30.07R WCI  -1
6HR MIN TEMP:   9; 6HR MAX TEMP:  15;

HETTINGER ARPT PTCLDY     6   2  83 CALM      29.94F
$$

NDZ004>008-012>016-024-026-027-054-281300-
NORTHEAST NORTH DAKOTA

CITY           SKY/WX    TMP DP  RH WIND       PRES   REMARKS
GRAND FORKS    CLEAR     -7 -12  79 N12       30.24R WCI -26
GRND FRKS AFB  CLEAR     -7 -11  80 N12       30.24R WCI -26
DEVILS LAKE    CLOUDY     0  -8  71 NE6       30.15R WCI -12
$$

NDZ022-023-025-028>030-036>039-047>053-281300-
SOUTHEAST NORTH DAKOTA

CITY           SKY/WX    TMP DP  RH WIND       PRES   REMARKS
FARGO          CLOUDY     5  -1  76 N16       30.19R WCI -14
6HR MIN TEMP:   5; 6HR MAX TEMP:  23;

JAMESTOWN      CLOUDY     7   3  84 NE12      30.12R WCI  -8
$$




USA.gov is the U.S. government's official web portal to all federal, state and local government web resources and services.